Weather History for Wausau, WI

Change the Weather History Date:

Friday, September 20, 2013

  Actual Average Record
Temperature  
Mean Temperature 59 °F 57 °F  
Max Temperature 67 °F 67 °F 89 °F (1908)
Min Temperature 50 °F 46 °F 27 °F (1897)
Degree Days  
Heating Degree Days 6 9  
Month to date heating degree days 88 115  
Since 1 July heating degree days 144 181  
Cooling Degree Days 0 1  
Month to date cooling degree days 56 29  
Year to date cooling degree days 506 404  
Growing Degree Days 10 (Base 50)    
Moisture  
Dew Point 59 °F    
Average Humidity 84    
Maximum Humidity 100    
Minimum Humidity 68    
Precipitation  
Precipitation 0.02 in 0.13 in 1.27 in (1980)
Month to date precipitation 2.30 2.59  
Year to date precipitation 29.93 24.80  
Snow  
Snow 0.00 in 0.00 in 0.00 in ()
Month to date snowfall 0.0 0.0  
Since 1 July snowfall 0.0 0.0  
Since 1 September snowfall 0.0 0.0  
Snow Depth 0.00 in    
Sea Level Pressure  
Sea Level Pressure 29.74 in    
Wind  
Wind Speed 10 mph (West)    
Max Wind Speed 21 mph    
Max Gust Speed 24 mph    
Visibility 9 miles    
Events Rain    
T = Trace of Precipitation, MM = Missing Value Source: NWS Daily Summary

Daily Weather History Graph

Daily Weather History Graph

Search for Another Location

Airport:

Trip Planner

Search our weather history database for the weather conditions in past years. The results will help you decide how hot, cold, wet, or windy it might be!

Date:

Astronomy

Sep. 20, 2013 Rise Set
Actual Time 6:43 AM CDT 6:59 PM CDT
Civil Twilight 6:14 AM CDT 7:28 PM CDT
Nautical Twilight 5:39 AM CDT 8:02 PM CDT
Astronomical Twilight 5:04 AM CDT 8:38 PM CDT
Moon 7:26 PM CDT (9/20) 8:03 AM CDT (9/20)
Length of Visible Light 13h 14m
Length of Day
12h 15m
Full, 98% of the Moon is Illuminated
Sep 20
Full
Sep 26
Last Quarter
Oct 4
New
Oct 11
First Quarter
Oct 18
Full

Hourly Weather History & Observations

Time (CDT) Temp. Dew Point Humidity Pressure Visibility Wind Dir Wind Speed Gust Speed Precip Events Conditions
12:54 AM 64.9 °F 64.0 °F 97% 29.70 in 9.0 mi Calm Calm - N/A   Overcast
1:54 AM 64.9 °F 64.0 °F 97% 29.72 in 9.0 mi WSW 5.8 mph - N/A   Mostly Cloudy
2:04 AM 64.4 °F 64.4 °F 100% 29.72 in 9.0 mi WSW 5.8 mph - N/A   Mostly Cloudy
2:30 AM 66.2 °F 64.4 °F 94% 29.72 in 8.0 mi Calm Calm - N/A   Overcast
2:47 AM 66.2 °F 64.4 °F 94% 29.72 in 8.0 mi WSW 5.8 mph - N/A   Overcast
2:54 AM 66.0 °F 64.0 °F 93% 29.71 in 8.0 mi WSW 4.6 mph - N/A   Overcast
3:07 AM 66.2 °F 64.4 °F 94% 29.71 in 8.0 mi SW 3.5 mph - N/A   Overcast
3:28 AM 66.2 °F 64.4 °F 94% 29.71 in 7.0 mi WSW 4.6 mph - N/A   Overcast
3:35 AM 66.2 °F 64.4 °F 94% 29.71 in 7.0 mi WSW 4.6 mph - N/A   Overcast
3:43 AM 66.2 °F 64.4 °F 94% 29.71 in 7.0 mi West 3.5 mph - N/A   Overcast
3:54 AM 66.0 °F 64.0 °F 93% 29.70 in 8.0 mi West 5.8 mph - N/A   Overcast
4:07 AM 66.2 °F 64.4 °F 94% 29.71 in 8.0 mi WNW 6.9 mph - N/A   Overcast
4:17 AM 66.2 °F 64.4 °F 94% 29.71 in 7.0 mi WNW 6.9 mph - N/A   Overcast
4:54 AM 66.0 °F 64.0 °F 93% 29.70 in 8.0 mi WNW 8.1 mph - N/A   Overcast
5:07 AM 66.2 °F 64.4 °F 94% 29.70 in 7.0 mi West 8.1 mph - N/A   Overcast
5:17 AM 64.4 °F 64.4 °F 100% 29.70 in 7.0 mi West 9.2 mph - N/A   Overcast
5:50 AM 64.4 °F 62.6 °F 94% 29.69 in 10.0 mi WNW 8.1 mph - 0.01 in   Mostly Cloudy
5:54 AM 64.9 °F 63.0 °F 93% 29.69 in 10.0 mi WNW 8.1 mph - 0.01 in   Mostly Cloudy
6:34 AM 64.4 °F 62.6 °F 94% 29.72 in 10.0 mi West 10.4 mph - N/A   Overcast
6:54 AM 64.0 °F 61.0 °F 90% 29.72 in 10.0 mi WNW 10.4 mph - N/A   Overcast
7:50 AM 64.4 °F 60.8 °F 88% 29.73 in 10.0 mi West 5.8 mph - N/A   Overcast
7:54 AM 64.0 °F 61.0 °F 90% 29.73 in 10.0 mi WNW 5.8 mph - N/A   Overcast
8:54 AM 64.0 °F 60.1 °F 87% 29.74 in 10.0 mi West 10.4 mph - N/A   Mostly Cloudy
9:50 AM 64.4 °F 59.0 °F 83% 29.76 in 10.0 mi West 13.8 mph - N/A   Overcast
9:54 AM 64.0 °F 57.9 °F 80% 29.76 in 10.0 mi West 13.8 mph 20.7 mph N/A   Overcast
10:54 AM 63.0 °F 57.0 °F 81% 29.77 in 10.0 mi West 11.5 mph - N/A   Overcast
11:18 AM 64.4 °F 57.2 °F 77% 29.76 in 10.0 mi West 10.4 mph - N/A   Overcast
11:31 AM 64.4 °F 57.2 °F 77% 29.76 in 10.0 mi West 16.1 mph 19.6 mph N/A   Overcast
11:54 AM 64.0 °F 55.9 °F 75% 29.76 in 10.0 mi West 13.8 mph 21.9 mph N/A   Overcast
12:54 PM 60.1 °F 55.0 °F 83% 29.77 in 10.0 mi West 12.7 mph 23.0 mph N/A   Overcast
1:12 PM 62.6 °F 55.4 °F 77% 29.76 in 10.0 mi West 8.1 mph 17.3 mph N/A   Overcast
1:47 PM 64.4 °F 55.4 °F 73% 29.75 in 10.0 mi West 11.5 mph - N/A   Mostly Cloudy
1:54 PM 64.0 °F 55.0 °F 73% 29.75 in 10.0 mi West 16.1 mph 20.7 mph N/A   Mostly Cloudy
2:54 PM 66.9 °F 55.0 °F 66% 29.74 in 10.0 mi West 15.0 mph - N/A   Mostly Cloudy
3:54 PM 64.0 °F 53.1 °F 67% 29.75 in 10.0 mi West 15.0 mph 21.9 mph 0.00 in Rain Light Rain
4:54 PM 62.1 °F 52.0 °F 70% 29.76 in 10.0 mi WNW 12.7 mph - 0.00 in   Overcast
5:54 PM 60.1 °F 55.0 °F 83% 29.76 in 10.0 mi West 5.8 mph - 0.00 in   Overcast
6:03 PM 60.8 °F 55.4 °F 82% 29.76 in 6.0 mi NW 9.2 mph - 0.00 in Rain Light Rain
6:15 PM 60.8 °F 53.6 °F 77% 29.76 in 10.0 mi NW 12.7 mph 17.3 mph 0.01 in Rain Light Rain
6:54 PM 59.0 °F 53.1 °F 81% 29.78 in 10.0 mi NW 11.5 mph - 0.01 in   Overcast
7:54 PM 57.9 °F 51.1 °F 78% 29.81 in 10.0 mi NW 8.1 mph - N/A   Overcast
8:54 PM 57.9 °F 48.9 °F 72% 29.82 in 10.0 mi NW 5.8 mph - N/A   Overcast
9:54 PM 57.0 °F 48.0 °F 72% 29.83 in 10.0 mi NW 9.2 mph - N/A   Overcast
10:54 PM 54.0 °F 48.0 °F 80% 29.83 in 10.0 mi WNW 11.5 mph - N/A   Clear
11:54 PM 51.1 °F 46.9 °F 86% 29.84 in 10.0 mi WNW 9.2 mph - N/A   Clear